Location: Auwallenburg
(50.7870°N, 10.4094°E)
Time: 16:12:20
(UTC+00:00)

Daily predictions for brighter satellites

Satellite Brightness Start Highest point End
(mag) Time Altitude Azimuth Time Altitude Azimuth Time Altitude Azimuth
Cosmos 1464 Rocket 4.5 15:42:51 10° SSW 15:48:58 65° WNW 15:55:06 10° N
Cosmos 2084 3.4 15:44:55 10° SW 15:49:08 87° NW 15:53:18 10° NE
Cosmos 2263 Rocket 3.6 15:46:36 10° N 15:50:32 19° NNE 15:54:28 10° ENE
NOSS 2-2 (C) 3.3 15:47:54 10° SSW 15:51:01 42° SE 15:53:53 10° NE
ARIANE 5 R/B 3.1 15:49:01 10° SE 15:53:32 34° ENE 15:58:07 10° N
SMAP 3.5 15:49:59 10° SE 15:54:17 39° ENE 15:58:37 10° N
Cosmos 2084 Rocket 4.1 15:50:52 10° NW 15:54:43 33° NNE 15:58:33 10° E
Cosmos 2208 Rocket 4.2 15:50:19 10° NNW 15:55:21 49° ENE 16:00:21 10° SE
USA 290 3.4 15:53:32 10° N 15:56:15 24° NE 15:58:58 10° ESE
CORIOLIS 4.3 15:53:49 10° SE 15:58:55 50° ENE 16:04:04 10° N
Landsat 7 4.4 15:55:57 10° SE 16:00:08 35° ENE 16:04:21 10° N
Cosmos 2279 Rocket 4.3 15:54:56 10° SSE 16:00:48 46° E 16:06:43 10° NNE
Cosmos 2227 Rocket 3.0 15:57:03 10° NNW 16:01:55 28° NE 16:06:45 10° ESE
Cosmos 1092 Rocket 4.1 15:55:47 10° N 16:01:59 87° W 16:08:07 10° S
Cosmos 1356 Rocket 3.3 16:02:56 10° S 16:06:59 76° E 16:11:05 10° NNE
Cosmos 2369 Rocket 3.4 16:01:54 10° WSW 16:07:08 38° NW 16:12:27 10° NNE
Cosmos 1455 Rocket 3.4 16:03:15 10° SSW 16:07:33 69° WNW 16:11:56 10° N
Cosmos 1602 Rocket 4.2 16:03:50 10° N 16:07:51 33° ENE 16:11:49 10° SE
CZ-2D R/B 3.7 16:05:19 10° SE 16:07:58 25° ENE 16:10:38 10° N
SJ-12 4.5 16:05:19 10° SE 16:08:39 30° ENE 16:12:00 10° N
GEOS 3 Rocket 4.0 16:04:19 10° NE 16:09:38 55° SE 16:14:53 10° SSW
ATLAS CENTAUR R/B 0.6 16:06:56 10° NW 16:10:12 62° NE 16:13:21 10° SE
Cosmos 1943 Rocket 4.3 16:10:04 10° NW 16:12:04 12° NNW 16:14:03 10° N
CBERS-1 4.1 16:08:04 10° SSE 16:13:12 88° WSW 16:18:21 10° NNW
NOSS 3-2 (C) 4.2 16:11:02 10° SSE 16:15:07 25° ESE 16:19:08 12° ENE
NOSS 3-2 (A) 3.3 16:10:38 10° SSW 16:15:33 58° SE 16:21:12 11° NE
Cosmos 2278 Rocket 4.4 16:14:37 10° NW 16:16:53 12° NNW 16:19:10 10° N
CZ-4C R/B 2.9 16:11:19 10° NW 16:17:49 61° NE 16:26:02 10° ESE
Cosmos 1743 2.7 16:15:47 10° N 16:18:53 39° ENE 16:21:58 10° SSE
BREEZE M DEB (TANK) 4.3 16:02:11 10° WNW 16:18:58 69° SSW 16:23:13 10° ESE
Iridium 51 3.7 16:17:42 10° S 16:20:49 84° W 16:24:01 10° N
Cosmos 1697 Rocket 4.0 16:17:42 10° SE 16:21:40 20° E 16:24:38 14° ENE
YAOGAN 1 3.9 16:18:56 10° ESE 16:21:50 18° ENE 16:24:44 10° NNE
Thor Agena Rocket 3.6 16:21:41 10° SSE 16:26:55 90° WSW 16:32:07 10° NNW
IRS-1C 4.1 16:22:38 10° SSE 16:27:52 62° ENE 16:33:09 10° N
BlueWalker 3 2.9 16:27:07 10° WNW 16:30:35 44° SSW 16:34:04 10° SE
Meteor 1-20 Rocket 4.2 16:25:49 10° N 16:31:12 54° ENE 16:36:32 10° SSE
Cosmos 1607 3.9 16:25:03 10° NW 16:31:18 76° NE 16:37:34 10° SE
Cosmos 2228 3.2 16:27:20 10° SSW 16:31:33 73° W 16:35:50 10° N
BREEZE-M DEB (TANK) 3.2 16:31:35 10° W 16:34:23 77° S 16:41:11 13° E
Cosmos 2266 Rocket 4.0 16:29:06 10° N 16:35:13 57° ENE 16:41:11 10° SSE
Cosmos 1484 Rocket 4.1 16:33:43 10° SSW 16:37:02 38° W 16:40:21 10° NNW
Meteor 1-28 Rocket 3.2 16:34:52 10° N 16:38:13 68° WNW 16:41:32 10° SSW
MOS 1 Rocket 3.5 16:33:44 10° SSE 16:38:29 55° ENE 16:43:31 10° N
Cosmos 1825 Rocket 4.0 16:37:54 10° N 16:41:58 36° ENE 16:45:58 10° SE
IRIDIUM 104 4.3 16:38:08 10° N 16:43:21 64° E 16:48:33 10° SSE
Cosmos 1758 Rocket 3.7 16:39:26 10° NNW 16:43:45 75° W 16:48:01 10° S
SL-16 R/B 2.9 16:38:15 10° NNE 16:44:27 69° WNW 16:50:36 10° SSW
Cosmos 1461 3.8 16:43:17 10° S 16:46:39 28° ESE 16:47:52 23° E
Cosmos 2098 Rocket 2.9 16:43:39 10° S 16:47:38 79° E 16:52:25 10° NNE
Cosmos 1900 4.3 16:42:56 10° NW 16:47:59 64° NE 16:52:56 10° SE
BREEZE-M DEB (TANK) 2.9 16:47:19 10° SSW 16:48:40 18° SE 16:48:46 18° SE
Lacrosse 5 rocket 1.5 16:46:57 10° W 16:50:37 50° NNW 16:52:27 25° NE
Spot 4 Rocket 4.4 16:46:40 10° SE 16:51:22 38° ENE 16:56:05 10° N
IRIDIUM 114 4.2 16:47:15 10° N 16:52:31 76° E 16:57:44 10° S
NOSS 2-2 (D) 2.6 16:49:48 10° SW 16:53:04 87° NW 16:54:22 32° NE
Cosmos 1656 3.6 16:47:36 10° SSW 16:53:13 85° ESE 16:58:14 14° NNE
Cosmos 2297 Rocket 2.4 16:49:44 10° NNW 16:55:26 77° WSW 17:01:05 10° SSE
Cosmos 1777 Rocket 4.0 16:53:42 10° S 16:58:53 63° ESE 17:02:47 18° NNE
IRIDIUM 103 4.3 16:56:25 10° N 17:01:42 89° E 17:06:55 10° S
SAR-Lupe-4 4.0 16:58:50 10° S 17:02:22 64° WSW 17:05:55 10° NNW
Cosmos 2151 3.0 16:58:49 10° NNW 17:02:58 77° W 17:07:08 10° S
Lacrosse 4 Rocket 3.1 17:00:24 10° W 17:03:48 25° NW 17:06:40 13° NNE
Meteor 1-25 Rocket 4.2 16:58:04 10° N 17:03:55 75° ENE 17:09:42 10° SSE
NOSS 2-2 (E) 2.6 17:01:48 10° SW 17:05:04 84° NW 17:05:54 44° NE
AQUARIUS 4.1 17:00:46 10° SSE 17:05:10 83° WSW 17:09:37 10° NNW
CENTAUR R/B 3.3 17:01:50 10° WSW 17:07:40 48° NNW 17:13:07 18° NE
Cosmos 1867 3.5 17:02:41 10° NW 17:08:11 83° NE 17:13:39 10° SE
Cosmos 2219 3.8 17:05:25 10° NNW 17:10:39 35° NE 17:12:16 30° E
Cosmos 1782 3.8 17:11:12 10° SSW 17:14:36 41° WNW 17:18:03 10° N
Cosmos 1486 Rocket 4.0 17:09:27 10° SSW 17:14:40 81° WNW 17:18:50 17° NNE
USA 238 DEB 4.5 17:10:07 10° SSE 17:14:57 25° ESE 17:15:27 25° ESE
Meteor 1-5 Rocket 4.0 17:09:51 10° N 17:15:08 61° ENE 17:20:30 10° SSE
Cosmos 1076 Rocket 3.6 17:12:49 10° N 17:17:01 52° ENE 17:21:14 10° SSE
Cosmos 1606 Rocket 3.5 17:13:09 10° S 17:17:31 65° E 17:20:08 24° NNE
IRS-P3 4.3 17:12:32 10° S 17:17:51 75° WSW 17:23:12 10° NNW
USA 281 4.4 17:21:04 21° NE 17:21:19 21° NE 17:26:01 10° N
USA 215 3.5 17:19:58 30° ENE 17:23:11 56° N 17:29:34 10° WNW
Cosmos 1980 Rocket 3.1 17:18:47 10° SSE 17:22:55 27° ESE 17:22:55 27° ESE
Resurs 1-3 3.4 17:21:45 10° SSE 17:25:59 63° ENE 17:30:15 10° N
CZ-4 R/B 4.3 17:23:28 10° S 17:27:25 80° WSW 17:31:24 10° NNW
USA 81 4.1 17:22:34 10° N 17:27:44 52° ENE 17:32:52 10° SSE
Cosmos 1844 Rocket 4.1 17:24:30 10° NNW 17:27:55 20° NNE 17:27:55 20° NNE
Okean 1-7 Rocket 4.1 17:25:08 10° NNW 17:29:29 59° W 17:33:46 10° S
USA 290 4.5 17:27:46 10° NW 17:30:35 27° WSW 17:33:23 10° SSW
Meteor 2-20 4.5 17:24:44 10° S 17:30:43 56° E 17:36:03 13° NNE
Cosmos 1655 Rocket 3.9 17:25:01 10° N 17:31:18 78° E 17:37:30 10° SSE
ARIANE 5 R/B 3.8 17:27:44 10° SSW 17:32:29 41° W 17:37:20 10° NNW
PSLV R/B 3.2 17:32:30 54° SE 17:33:13 66° ENE 17:37:15 10° N
COSMO-SKYMED 1 3.0 17:34:13 41° SE 17:34:13 41° SE 17:37:17 10° S
Cosmos 2084 Rocket 4.1 17:29:34 10° NW 17:33:42 54° SW 17:36:42 17° SSE
Cosmos 2263 Rocket 2.1 17:29:57 10° NNW 17:35:35 64° ENE 17:38:10 32° SE
NOAA 6 3.9 17:30:39 10° SSE 17:35:40 60° ENE 17:40:42 10° N
SL-19 R/B 4.1 17:32:45 10° SSE 17:38:05 77° ENE 17:43:45 10° NNW
CZ-2D R/B 3.5 17:34:01 10° SSE 17:38:14 80° WSW 17:42:26 10° NNW
Cosmos 990 Rocket 3.8 17:33:35 10° SSW 17:38:40 68° ESE 17:40:00 48° NE
SPOT 1/Viking Rocket 3.7 17:33:41 10° S 17:38:53 73° WSW 17:44:07 10° NNW
SKYMED 2 3.5 17:41:22 44° NNE 17:42:45 90° NE 17:47:05 10° SSW
Cosmos 1726 Rocket 3.5 17:38:50 10° S 17:43:29 87° E 17:45:10 40° NNE
Cosmos 1933 3.7 17:40:16 10° SSW 17:44:02 59° WNW 17:45:20 37° NNW
ATLAS CENTAUR R/B 4.0 17:42:53 10° W 17:44:35 14° WSW 17:46:14 10° SSW
Cosmos 2227 Rocket 2.4 17:40:50 10° NNW 17:46:29 70° WSW 17:52:05 10° SSE
Meteor 2-20 Rocket 4.4 17:46:55 10° S 17:53:03 59° E 17:54:27 48° NE
YAOGAN 1 2.9 17:53:02 10° S 17:57:15 63° WSW 18:01:30 10° NNW
Resurs 01 Rocket 4.0 18:03:55 12° N 18:03:55 12° N 18:04:19 10° N
Cosmos 1697 Rocket 2.7 17:59:22 10° SSW 18:04:59 78° WNW 18:06:23 52° NNE
NOSS 3-2 (C) 3.3 18:00:02 10° SW 18:05:13 70° NW 18:06:33 52° NNE
IRAS Rocket 4.4 17:59:57 10° S 18:05:25 69° WSW 18:10:55 10° NNW
CZ-4C R/B 3.8 17:59:32 10° NW 18:06:18 49° WSW 18:14:30 10° SSE
NOSS 3-2 (A) 4.2 18:01:29 10° W 18:06:34 41° NNW 18:08:33 32° NNE
Cosmos 1953 Rocket 4.2 18:03:52 10° NNW 18:08:12 55° W 18:12:32 10° S
Cosmos 1538 Rocket 4.0 18:03:56 10° NNW 18:09:13 78° WSW 18:10:37 50° S
Cosmos 1461 4.4 18:19:31 10° WSW 18:22:01 32° W 18:22:01 32° W
Lacrosse 5 rocket 3.6 18:24:52 10° WNW 18:26:02 17° NW 18:26:02 17° NW
Nadezhda 2 Rocket 4.4 18:22:08 10° NNW 18:28:19 81° W 18:30:29 43° S
Cosmos 2082 4.1 18:26:10 10° NNW 18:30:42 58° NNW 18:30:42 58° NNW
Cosmos 1553 Rocket 4.4 18:35:59 10° SSW 18:40:28 51° SSW 18:40:28 51° SSW
Cosmos 2219 4.0 18:49:28 10° NW 18:54:13 49° W 18:54:13 49° W
CENTAUR R/B 4.0 18:54:02 10° WNW 19:00:04 32° N 19:00:13 32° N
USA 281 4.4 19:07:57 32° NNW 19:07:57 32° NNW 19:11:18 10° NNW
USA 238 DEB 4.3 18:58:52 10° SW 19:02:56 45° SW 19:02:56 45° SW
USA 238 4.3 18:58:57 10° SW 19:03:00 45° SW 19:03:00 45° SW
USA 215 3.6 19:07:18 62° WNW 19:07:18 62° WNW 19:12:38 10° WNW
Cosmos 1980 Rocket 3.6 19:01:34 10° SW 19:04:42 33° WSW 19:04:42 33° WSW
Cosmos 2263 Rocket 4.0 19:14:29 10° NW 19:19:04 26° WSW 19:19:56 25° WSW
